Temperature
13 13 13 13 13 13 13 14 14 15 15 14 14 14 14 14 15 15 15 15 16 16 16 16 16 16 16 16 16 16 16 16 16 16 16 16 16 16
13 13 13 13 13 13 13 13 13 14 14 14 14 14 14 14 14 14 14 15 15 15 15 15 15 16 16 16 16 16 16 16 16 16 16 16 16 16
13 13 13 13 13 13 13 13 13 13 14 14 14 14 14 14 14 14 14 14 14 15 15 15 15 15 15 15 15 15 16 16 16 16 16 16 16 16
13 13 13 13 13 13 13 13 13 13 13 13 13 13 13 13 13 14 14 14 14 14 15 15 15 15 15 15 15 15 15 15 15 15 16 16 15 15
13 13 13 13 13 13 13 13 13 13 13 13 13 13 13 13 13 13 13 13 13 14 14 14 14 14 14 14 15 15 15 15 15 15 15 15 15 15
13 13 13 13 13 13 13 13 13 13 13 13 13 13 13 13 13 13 13 13 13 13 13 14 14 14 14 14 14 14 14 14 14 15 15 15 15 15
13 13 13 13 13 13 13 13 12 13 13 13 13 13 13 12 13 12 13 13 13 13 13 13 13 13 13 14 14 14 14 14 14 14 14 14 14 14
13 13 13 13 13 13 13 13 13 12 13 13 13 13 13 12 12 12 12 12 12 12 12 12 12 13 13 13 13 14 14 14 14 14 14 14 14 14
13 13 13 13 13 12 12 13 12 12 12 12 12 12 12 12 12 12 12 12 12 12 12 12 12 12 12 13 13 13 13 13 13 13 13 14 14 14
13 13 13 12 12 12 12 12 12 12 12 12 12 12 12 12 12 12 12 12 12 12 12 12 12 12 12 12 13 13 13 13 13 13 13 13 13 13
13 13 13 12 12 12 12 12 12 12 12 12 12 12 12 12 12 12 11 11 11 11 12 11 11 12 12 12 12 12 12 12 12 12 12 13 13 13
12 12 13 13 13 12 12 11 11 12 11 12 12 12 12 12 12 11 11 11 11 11 11 11 11 11 11 11 11 11 11 12 12 12 12 12 12 12
12 12 12 13 13 12 12 11 11 11 11 11 11 11 11 11 11 11 11 11 11 11 11 11 11 11 11 11 10 10 11 11 11 11 11 11 11 11
12 12 12 12 12 12 12 11 11 11 11 10 10 10 10 10 11 11 11 11 10 10 11 10 10 10 10 10 10 10 10 10 10 10 10 10 11 11
12 12 12 12 12 12 12 11 11 11 10 10 10 10 10 10 10 10 10 10 10 10 10 10 10 10 10 9 9 9 9 9 9 9 9 9 9 9
12 12 12 12 11 11 11 11 11 10 10 10 10 10 10 10 10 10 10 10 9 9 9 10 9 9 9 9 9 9 8 8 8 9 9 9 9 9
11 11 11 11 11 10 10 10 10 10 10 9 9 9 9 9 9 9 9 9 8 8 8 9 9 9 9 9 8 8 8 8 8 8 8 8 8 8
10 10 10 10 10 10 10 10 10 10 9 9 9 9 9 9 9 9 9 8 8 8 8 8 8 8 8 8 8 8 7 7 7 7 7 7 7 7
10 10 10 10 10 10 10 10 10 9 9 9 9 9 8 8 8 8 8 8 7 7 7 7 7 7 7 7 7 7 7 7 7 6 6 6 7 7
10 10 10 10 10 10 10 10 9 9 9 9 9 8 8 8 8 8 7 7 7 7 6 7 6 6 6 6 6 6 7 6 6 6 6 6 6 7
9 10 10 10 10 10 10 10 9 9 9 9 8 8 8 8 7 7 7 7 7 6 6 6 6 7 6 6 6 6 5 6 6 5 5 5 5 5
9 9 10 10 10 10 10 10 9 9 9 8 8 8 8 7 7 7 7 6 6 6 6 5 6 6 5 5 5 5 5 5 5 5 5 5 4 4
9 9 9 10 10 10 9 9 9 9 8 8 8 8 7 7 7 7 6 6 6 5 5 5 5 5 4 4 4 4 4 4 4 4 4 4 5 5
Wind_Speed
3 3 3 2 2 2 2 2 2 2 2 1 1 0 0 0 1 2 2 4 3 4 5 5 6 8 9 9 9 10 10 11 12 13 14 14 14 14
2 3 3 3 2 2 3 2 3 3 2 0 0 1 1 1 0 1 1 4 4 4 4 5 5 6 7 8 8 8 8 8 9 10 12 13 13 13
3 3 3 3 3 3 2 3 3 3 3 1 1 1 1 1 0 0 1 2 3 4 4 4 5 5 5 5 6 7 7 7 7 8 9 11 11 11
4 4 3 2 3 3 3 3 3 3 3 2 1 1 1 0 0 1 1 1 1 5 4 3 3 4 4 4 4 5 6 7 7 6 7 8 10 10
5 5 4 4 4 3 4 4 3 3 3 3 2 1 1 0 0 1 1 1 1 3 5 5 4 4 4 4 4 4 4 5 6 6 6 6 7 8
6 5 5 5 5 5 4 4 4 4 3 3 3 2 1 1 1 1 1 2 2 1 2 3 5 6 5 4 3 3 3 3 4 5 5 5 6 6
7 6 6 4 4 4 4 4 4 4 4 4 3 2 2 2 2 2 2 2 2 1 2 3 3 3 4 5 4 3 3 3 3 4 5 5 6 6
8 7 6 6 6 6 4 4 4 4 4 4 4 4 3 2 2 2 2 3 2 1 2 2 2 2 2 2 4 3 2 2 3 3 4 5 6 6
9 8 6 5 6 6 7 8 6 5 5 5 5 4 4 3 3 4 3 3 2 0 2 2 2 2 1 3 5 4 3 2 2 2 3 4 5 7
10 9 8 8 7 7 7 6 6 5 5 6 4 4 3 3 3 3 3 3 2 1 2 2 1 1 1 3 6 5 4 3 1 0 1 3 5 7
9 9 9 8 6 6 8 7 6 5 3 2 1 2 3 2 2 3 3 3 3 2 1 2 1 2 2 2 5 6 5 4 2 1 1 3 5 7
8 8 7 7 6 8 9 8 8 7 6 6 5 5 4 3 2 3 3 4 3 2 1 2 2 2 2 2 2 2 3 4 3 2 1 2 4 5
9 8 7 9 9 9 9 8 6 5 6 6 5 5 4 3 3 3 2 2 3 2 0 1 2 2 3 2 2 1 1 2 2 1 2 1 1 4
9 8 7 11 11 9 8 6 5 5 6 6 5 5 4 4 3 3 2 1 1 0 0 1 2 3 3 4 3 2 1 2 2 2 3 1 3 4
9 6 6 11 11 9 8 8 8 7 7 7 6 6 5 4 4 3 3 3 2 2 1 1 2 3 4 4 3 3 3 3 2 2 3 3 4 4
9 7 9 9 8 6 8 9 8 7 7 7 6 5 5 5 4 4 4 4 3 2 2 1 2 3 3 4 4 4 4 3 2 3 4 4 4 5
9 9 9 9 10 9 8 8 8 8 8 7 6 6 6 6 5 4 3 4 4 3 2 1 1 2 3 4 4 4 4 4 3 4 5 5 5 5
10 11 11 11 11 11 10 10 9 9 8 8 7 7 7 6 6 5 5 5 4 3 2 2 2 2 3 2 2 4 3 3 4 4 5 7 7 6
12 13 13 13 12 12 11 11 10 9 8 8 8 8 7 7 6 6 5 5 4 4 3 2 3 3 4 4 2 1 3 4 5 5 6 7 8 8
13 14 14 13 13 12 12 11 10 10 9 9 9 8 8 8 7 7 6 6 5 4 3 3 3 3 3 4 3 3 3 5 5 6 7 7 8 8
14 14 14 13 13 13 12 11 11 11 11 10 10 9 9 8 8 7 6 6 5 5 4 3 1 1 3 3 4 4 3 3 5 6 8 8 8 8
14 14 14 13 13 13 12 12 12 11 12 11 10 10 9 8 8 8 7 6 6 5 4 3 2 3 4 5 6 6 6 5 5 8 9 9 7 6
13 13 13 13 13 12 12 14 14 12 12 11 11 10 10 9 8 7 7 6 6 5 4 4 3 3 4 4 5 6 7 7 7 7 7 8 13 16
Wind_Direction
295 290 285 287 290 296 295 284 277 263 223 176 206 306 241 142 48 221 187 139 180 211 212 208 208 209 208 212 217 217 218 222 223 221 220 222 226 228
277 289 282 272 278 281 278 272 274 278 265 216 247 295 314 254 178 247 160 141 182 199 208 211 211 206 208 210 214 216 216 217 220 225 226 227 229 231
261 266 267 269 269 266 259 257 258 261 253 254 264 266 248 244 210 242 217 215 171 157 184 199 208 207 205 208 211 214 214 212 216 228 234 232 231 234
272 268 270 253 246 254 248 245 245 250 251 242 244 282 307 338 342 264 222 203 180 129 145 161 179 188 193 197 199 201 205 208 213 223 235 238 237 239
260 262 265 263 248 235 238 239 235 233 235 232 235 264 271 269 299 259 215 212 209 150 157 160 157 164 173 183 187 191 199 207 212 218 231 244 244 242
253 256 259 259 258 247 236 235 233 227 221 228 227 227 240 245 235 246 216 197 214 201 165 165 159 165 170 179 184 182 188 203 213 215 224 241 250 251
247 247 248 258 293 279 263 242 226 223 218 220 220 216 218 221 227 242 237 222 198 230 221 198 183 191 180 178 184 183 192 202 212 216 224 236 245 252
246 243 236 223 220 222 242 268 281 244 228 222 225 219 221 224 229 235 231 229 215 201 249 217 208 203 184 155 118 136 168 193 207 224 237 245 252 256
247 242 237 228 221 223 206 206 222 245 260 254 241 235 232 223 224 228 230 242 249 273 271 225 204 197 150 99 107 125 130 137 164 216 254 261 262 262
242 240 236 231 225 227 223 216 215 210 218 231 241 248 256 252 241 243 236 228 227 218 275 247 226 221 187 130 111 116 116 113 125 210 283 284 276 267
237 237 238 233 196 206 224 217 209 202 167 156 45 67 59 37 289 226 211 217 223 200 239 254 258 264 236 189 137 130 129 120 105 62 317 307 297 279
231 229 226 234 195 196 217 217 216 209 199 183 185 186 187 163 208 229 228 235 235 211 178 256 254 269 248 201 191 178 155 133 130 128 64 347 327 293
230 225 216 191 197 200 223 225 216 214 205 201 198 194 191 185 186 203 222 249 251 235 105 274 263 262 262 258 250 251 290 310 297 254 174 132 339 309
234 229 209 177 187 197 209 195 184 204 212 206 203 200 196 191 184 174 162 144 28 8 64 301 276 277 271 264 256 248 281 299 300 297 301 260 244 228
238 225 188 169 178 191 191 188 194 207 210 210 209 203 198 192 173 161 156 142 127 100 51 305 276 267 266 264 267 271 283 281 283 289 296 301 300 294
231 203 178 174 192 191 182 193 209 212 213 212 210 197 181 177 177 175 175 177 182 179 160 218 268 264 263 266 265 269 274 273 279 293 297 293 290 287
210 208 202 196 199 202 203 199 201 200 202 204 197 191 186 186 184 183 185 190 202 201 191 198 231 247 267 273 259 258 265 272 281 297 298 292 287 283
208 215 209 205 204 202 201 199 199 200 199 195 194 192 191 189 185 183 188 195 201 205 208 211 231 233 228 231 276 267 273 286 296 297 291 289 287 286
214 220 215 209 207 204 202 201 199 196 193 193 192 191 190 188 187 187 190 194 198 202 204 215 238 251 258 257 192 232 289 296 298 293 291 291 292 296
220 222 218 211 207 204 202 200 195 190 190 193 192 191 189 189 190 193 195 197 197 199 203 212 232 252 269 290 286 269 259 284 292 295 298 297 293 288
220 222 219 212 206 203 199 196 193 190 190 191 192 191 190 190 193 195 193 178 199 204 211 213 191 266 271 270 262 261 271 236 269 288 300 299 298 294
223 220 217 212 205 200 195 191 191 190 189 191 190 190 190 192 192 192 191 189 198 205 211 204 192 227 244 256 268 280 287 287 248 236 252 266 286 296
227 222 216 208 203 197 193 192 191 191 189 189 188 187 187 187 187 189 190 194 195 198 203 210 217 230 246 259 273 283 291 297 297 293 280 245 241 254
Height
1504 1504 1503 1503 1503 1503 1503 1504 1505 1504 1505 1505 1505 1505 1505 1506 1506 1508 1509 1509 1511 1512 1514 1515 1517 1519 1521 1523 1525 1527 1529 1530 1532 1533 1535 1536 1538 1539
1503 1502 1502 1503 1502 1502 1502 1503 1503 1504 1503 1503 1503 1503 1503 1504 1505 1506 1506 1507 1508 1510 1511 1512 1514 1516 1518 1519 1521 1523 1525 1527 1528 1529 1531 1532 1534 1535
1502 1502 1501 1500 1500 1501 1501 1501 1501 1502 1502 1502 1502 1502 1502 1503 1503 1504 1504 1506 1507 1507 1508 1510 1511 1512 1514 1516 1517 1519 1521 1522 1524 1525 1527 1528 1530 1531
1501 1501 1500 1499 1499 1499 1499 1499 1500 1500 1501 1501 1501 1501 1501 1501 1501 1502 1503 1504 1504 1505 1506 1507 1508 1509 1510 1512 1514 1515 1517 1518 1520 1521 1522 1524 1525 1526
1500 1499 1499 1498 1498 1497 1497 1498 1498 1498 1498 1499 1499 1499 1499 1499 1500 1500 1501 1501 1502 1503 1503 1504 1505 1506 1507 1508 1510 1511 1512 1514 1515 1516 1518 1519 1520 1521
1498 1497 1497 1496 1496 1496 1496 1496 1496 1496 1496 1497 1497 1497 1497 1498 1498 1499 1500 1500 1500 1501 1501 1501 1502 1502 1503 1505 1506 1507 1508 1509 1511 1512 1513 1514 1516 1516
1495 1494 1494 1493 1493 1493 1493 1494 1494 1494 1494 1495 1495 1495 1496 1496 1497 1497 1498 1498 1498 1498 1499 1499 1500 1500 1501 1501 1502 1503 1504 1505 1507 1508 1509 1510 1511 1511
1492 1491 1491 1490 1490 1490 1490 1490 1491 1492 1492 1492 1493 1493 1494 1494 1494 1495 1495 1496 1497 1497 1497 1497 1497 1498 1498 1498 1498 1499 1500 1501 1502 1503 1504 1505 1506 1506
1488 1488 1487 1487 1487 1487 1487 1487 1487 1488 1489 1490 1491 1491 1491 1492 1492 1493 1493 1494 1494 1494 1494 1495 1495 1495 1495 1495 1495 1496 1496 1497 1498 1499 1500 1500 1501 1501
1483 1483 1483 1483 1483 1484 1484 1485 1485 1485 1486 1487 1488 1488 1489 1489 1489 1490 1490 1491 1491 1491 1491 1492 1492 1493 1492 1492 1492 1492 1493 1493 1494 1494 1495 1495 1496 1496
1478 1478 1479 1479 1479 1479 1480 1481 1482 1482 1483 1483 1484 1484 1485 1485 1486 1487 1488 1489 1489 1489 1489 1490 1490 1490 1490 1489 1489 1489 1489 1489 1490 1490 1490 1491 1491 1491
1473 1473 1473 1474 1474 1475 1476 1477 1478 1479 1479 1480 1480 1481 1481 1482 1483 1484 1485 1486 1487 1487 1486 1487 1487 1487 1488 1487 1487 1486 1486 1486 1485 1486 1486 1486 1486 1486
1468 1468 1468 1468 1469 1470 1471 1473 1474 1475 1476 1477 1477 1478 1478 1479 1480 1480 1481 1482 1484 1484 1484 1484 1484 1484 1485 1485 1484 1484 1483 1482 1482 1482 1481 1481 1481 1481
1462 1462 1463 1463 1464 1466 1467 1468 1469 1471 1472 1473 1474 1474 1475 1476 1476 1477 1478 1478 1479 1480 1480 1481 1481 1481 1481 1481 1482 1481 1480 1479 1478 1478 1478 1477 1477 1476
1456 1457 1457 1458 1459 1461 1462 1463 1465 1466 1468 1469 1470 1470 1471 1472 1473 1474 1474 1475 1476 1476 1476 1477 1477 1477 1477 1477 1477 1477 1476 1475 1475 1474 1474 1473 1473 1472
1449 1450 1452 1453 1454 1456 1457 1458 1460 1462 1463 1464 1465 1466 1467 1468 1469 1470 1471 1472 1473 1473 1473 1473 1473 1473 1473 1473 1473 1473 1472 1472 1471 1471 1470 1469 1468 1468
1443 1444 1445 1446 1448 1450 1452 1453 1454 1456 1458 1459 1461 1462 1463 1464 1465 1466 1467 1468 1470 1470 1470 1470 1470 1470 1470 1469 1469 1469 1469 1468 1467 1466 1465 1465 1464 1463
1436 1436 1438 1439 1441 1443 1445 1447 1449 1450 1452 1454 1456 1457 1459 1460 1461 1462 1463 1465 1466 1467 1467 1467 1467 1467 1467 1466 1466 1465 1465 1464 1464 1462 1461 1460 1460 1459
1427 1428 1430 1432 1434 1437 1439 1441 1443 1445 1447 1449 1451 1452 1454 1456 1457 1458 1460 1461 1462 1463 1463 1463 1464 1464 1465 1465 1462 1462 1461 1460 1459 1458 1457 1456 1454 1453
1418 1420 1422 1424 1427 1429 1432 1434 1436 1438 1441 1443 1445 1447 1449 1451 1453 1454 1456 1457 1458 1459 1460 1460 1460 1460 1461 1461 1460 1458 1457 1456 1455 1454 1453 1451 1449 1447
1409 1411 1414 1417 1419 1422 1425 1427 1430 1432 1434 1437 1440 1442 1444 1446 1448 1450 1451 1453 1454 1455 1456 1457 1456 1456 1456 1456 1456 1455 1454 1453 1451 1450 1448 1446 1443 1441
1400 1402 1405 1408 1411 1414 1417 1420 1423 1426 1428 1431 1434 1436 1438 1441 1443 1445 1447 1448 1450 1451 1452 1453 1452 1452 1453 1453 1453 1452 1451 1449 1447 1445 1443 1442 1440 1437
1392 1394 1396 1399 1402 1405 1409 1412 1416 1419 1422 1425 1428 1430 1433 1435 1438 1440 1442 1444 1445 1447 1448 1448 1449 1449 1449 1449 1448 1447 1446 1445 1443 1441 1439 1437 1435 1433